EA8CHC Sevilla ES current weather conditions

sailwx.info

Wind from 295 at 1 knots gusting 5

Air temperature 16.1° C
Dewpoint 4.8° C

Last reported at 2016-May-01 03:52 UTC.
Time now 2016-May-01 04:17 UTC

Location: N 37°26' W 006°03'.
View on Google Maps.

See reports from other nearby stations

  
Tides and Currents Weather Stations Pressure Air Temp Water Temp Dewpoint Dewpoint Depression Visibility Wind Speed Wind Dir Waves Ship Positions
date/time (UTC)wind fromknots sea level pressurealtimeterstation pressurevisibilityair tempwater tempwave heightnotes
2016-May-01 03:52 295 1 gusting 5 16.1
2016-May-01 03:47 279 2 gusting 5 16.7
2016-May-01 03:42 279 3 gusting 5 16.7
2016-May-01 03:37 279 3 gusting 5 16.7
2016-May-01 03:32 284 2 gusting 5 16.7
2016-May-01 03:27 279 3 gusting 5 16.7
2016-May-01 03:22 284 3 gusting 5 16.7
2016-May-01 03:17 299 3 gusting 4 16.7
2016-May-01 03:12 303 2 gusting 4 16.7
2016-May-01 03:07 308 3 gusting 4 16.7
2016-May-01 03:02 309 2 gusting 4 16.7
2016-May-01 02:57 281 2 gusting 5 16.7
2016-May-01 02:52 281 2 gusting 6 16.7
2016-May-01 02:47 280 4 gusting 6 16.7
2016-May-01 02:42 300 3 gusting 6 16.7
2016-May-01 02:37 281 3 gusting 4 16.7
2016-May-01 02:32 281 3 gusting 5 16.7
2016-May-01 02:27 288 2 gusting 5 16.7
2016-May-01 02:22 288 3 gusting 5 16.7
2016-May-01 02:17 293 2 gusting 4 17.2
2016-May-01 02:12 299 2 gusting 4 17.2
2016-May-01 02:07 299 2 gusting 4 17.8
2016-May-01 02:02 299 1 gusting 2 17.8
2016-May-01 01:57 036 0 gusting 3 17.8
2016-May-01 01:52 036 0 gusting 3 17.8
2016-May-01 01:47 036 0 gusting 3 17.8
2016-May-01 01:42 036 0 gusting 3 17.8
2016-May-01 01:37 036 1 gusting 3 18.3
2016-May-01 01:32 036 0 gusting 3 18.3
2016-May-01 01:27 039 0 gusting 5 18.3
2016-May-01 01:22 039 1 gusting 6 18.3
2016-May-01 01:17 18.9
2016-May-01 01:12 346 2 gusting 5 18.9
2016-May-01 01:07 18.9
2016-May-01 01:02 314 2 gusting 6 18.9
2016-May-01 00:57 314 2 gusting 4 18.9
2016-May-01 00:52 005 1 gusting 3 18.9
2016-May-01 00:47 18.3
2016-May-01 00:42 046 0 gusting 1 18.3
2016-May-01 00:37 321 18.3
2016-May-01 00:32 321 18.9
2016-May-01 00:27 321 0 gusting 2 18.9
2016-May-01 00:22 321 18.9
2016-May-01 00:17 321 18.9
2016-May-01 00:12 321 0 gusting 3 18.9
2016-May-01 00:07 337 0 gusting 3 18.9
2016-May-01 00:02 342 1 gusting 3 18.9
2016-Apr-30 23:57 317 1 gusting 3 18.9
2016-Apr-30 23:52 317 1 gusting 4 18.9
2016-Apr-30 23:47 326 2 gusting 4 19.4
2016-Apr-30 23:42 326 1 gusting 4 19.4
2016-Apr-30 23:37 333 1 gusting 4 19.4
2016-Apr-30 23:32 333 1 gusting 4 19.4
2016-Apr-30 23:27 323 1 gusting 4 19.4
2016-Apr-30 23:22 298 1 gusting 5 19.4
2016-Apr-30 23:17 316 1 gusting 5 19.4
2016-Apr-30 23:12 316 2 gusting 5 19.4
2016-Apr-30 23:07 307 3 gusting 5 19.4
2016-Apr-30 23:02 303 1 gusting 4 19.4
2016-Apr-30 22:57 289 1 gusting 4 18.9
2016-Apr-30 22:52 289 1 gusting 4 19.4
2016-Apr-30 22:47 289 1 gusting 4 18.9
2016-Apr-30 22:42 289 1 gusting 5 18.9
2016-Apr-30 22:37 289 3 gusting 5 18.9
2016-Apr-30 22:32 289 3 gusting 6 18.9
2016-Apr-30 22:27 289 2 gusting 6 18.9
2016-Apr-30 22:22 282 3 gusting 6 18.3
2016-Apr-30 22:17 302 3 gusting 6 18.3
2016-Apr-30 22:12 283 4 gusting 6 18.3
2016-Apr-30 22:07 292 4 gusting 6 18.9
2016-Apr-30 22:02 279 4 gusting 8 18.9
2016-Apr-30 21:57 303 4 gusting 8 19.4
2016-Apr-30 21:52 295 5 gusting 9 20.0
2016-Apr-30 21:47 270 6 gusting 9 20.0
2016-Apr-30 21:42 279 6 gusting 10 20.0
2016-Apr-30 21:37 275 6 gusting 10 20.0
2016-Apr-30 21:32 273 6 gusting 11 20.0
2016-Apr-30 21:27 280 6 gusting 11 20.0
2016-Apr-30 21:22 269 7 gusting 11 20.0
2016-Apr-30 21:17 254 6 gusting 11 20.0
2016-Apr-30 21:12 275 6 gusting 10 20.0
2016-Apr-30 21:07 274 6 gusting 10 20.0
2016-Apr-30 21:02 267 6 gusting 11 20.0
2016-Apr-30 20:57 259 6 gusting 11 20.0
2016-Apr-30 20:52 265 6 gusting 10 20.0
2016-Apr-30 20:47 281 7 gusting 10 20.0
2016-Apr-30 20:42 262 6 gusting 10 20.6
2016-Apr-30 20:37 269 6 gusting 10 20.6
2016-Apr-30 20:32 265 6 gusting 11 20.6
2016-Apr-30 20:27 281 6 gusting 11 20.6
2016-Apr-30 20:22 269 6 gusting 10 20.6
2016-Apr-30 20:17 262 6 gusting 10 20.6
2016-Apr-30 20:12 282 6 gusting 9 21.1
2016-Apr-30 20:07 252 6 gusting 9 21.1
2016-Apr-30 20:02 261 6 gusting 9 21.1
2016-Apr-30 19:57 262 6 gusting 9 21.1
2016-Apr-30 19:52 262 6 gusting 9 21.1
2016-Apr-30 19:47 254 6 gusting 9 21.1
2016-Apr-30 19:42 283 6 gusting 7 21.7
2016-Apr-30 19:37 281 6 gusting 7 21.7
2016-Apr-30 19:32 269 6 gusting 8 21.7
2016-Apr-30 19:27 268 6 gusting 8 21.7
2016-Apr-30 19:22 261 5 gusting 7 21.7
2016-Apr-30 19:17 262 5 gusting 7 21.7
2016-Apr-30 19:12 260 5 gusting 9 21.7
2016-Apr-30 19:07 273 5 gusting 9 21.7
2016-Apr-30 19:02 281 6 gusting 11 22.2
2016-Apr-30 18:57 284 6 gusting 11 22.2
2016-Apr-30 18:52 281 6 gusting 11 22.2
2016-Apr-30 18:47 273 7 gusting 11 22.8
2016-Apr-30 18:42 272 7 gusting 12 22.8
2016-Apr-30 18:37 278 7 gusting 12 22.8
2016-Apr-30 18:32 275 7 gusting 13 23.3
2016-Apr-30 18:27 270 6 gusting 13 23.3
2016-Apr-30 18:22 273 7 gusting 14 23.3
2016-Apr-30 18:17 273 8 gusting 14 23.3
2016-Apr-30 18:12 264 9 gusting 14 23.3
2016-Apr-30 18:07 277 10 gusting 14 23.9
2016-Apr-30 18:02 271 9 gusting 14 24.4
2016-Apr-30 17:57 244 8 gusting 14 24.4
2016-Apr-30 17:52 291 7 gusting 12 24.4
2016-Apr-30 17:47 259 6 gusting 12 25.0
2016-Apr-30 17:42 275 6 gusting 13 25.0
2016-Apr-30 17:37 250 6 gusting 13 25.0
2016-Apr-30 17:32 267 5 gusting 10 25.6
2016-Apr-30 17:27 283 5 gusting 10 25.6
2016-Apr-30 17:22 239 5 gusting 11 25.6
2016-Apr-30 17:17 258 6 gusting 11 25.6
2016-Apr-30 17:12 263 6 gusting 12 25.0
2016-Apr-30 17:07 277 6 gusting 12 25.0
2016-Apr-30 17:02 259 6 gusting 12 25.6
2016-Apr-30 16:57 271 6 gusting 12 25.6
2016-Apr-30 16:52 211 5 gusting 13 25.6
2016-Apr-30 16:47 225 5 gusting 13 25.6
2016-Apr-30 16:42 240 6 gusting 13 25.6
2016-Apr-30 16:37 255 6 gusting 13 25.6
2016-Apr-30 16:32 229 6 gusting 14 25.6
2016-Apr-30 16:27 223 6 gusting 14 25.6
2016-Apr-30 16:22 244 6 gusting 9 26.1
2016-Apr-30 16:17 248 3 gusting 9 26.7
2016-Apr-30 16:12 261 2 gusting 6 26.7
2016-Apr-30 16:07 281 2 gusting 6 26.1
2016-Apr-30 16:02 279 2 gusting 4 26.1
2016-Apr-30 15:57 304 1 gusting 4 26.1
2016-Apr-30 15:52 217 0 gusting 13 26.1
2016-Apr-30 15:47 078 1 gusting 13 25.6
2016-Apr-30 15:42 078 4 gusting 13 25.6
2016-Apr-30 15:37 060 3 gusting 13 26.1
2016-Apr-30 15:32 029 3 gusting 9 26.7
2016-Apr-30 15:27 338 3 gusting 9 26.7
2016-Apr-30 15:22 355 3 gusting 9 26.7
2016-Apr-30 15:17 212 3 gusting 9 26.7
2016-Apr-30 15:12 271 4 gusting 13 26.1
2016-Apr-30 15:07 223 5 gusting 13 26.1
2016-Apr-30 15:02 209 5 gusting 13 26.1
2016-Apr-30 14:57 300 6 gusting 13 25.6
2016-Apr-30 14:52 247 8 gusting 15 25.0
2016-Apr-30 14:47 210 9 gusting 15 24.4
2016-Apr-30 14:42 277 8 gusting 15 25.0
2016-Apr-30 14:37 279 6 gusting 15 25.6
2016-Apr-30 14:32 272 7 gusting 16 25.6
2016-Apr-30 14:27 234 7 gusting 16 25.6
2016-Apr-30 14:22 287 5 gusting 10 26.1
2016-Apr-30 14:17 252 2 gusting 10 26.7
2016-Apr-30 14:12 341 1 gusting 7 26.7
2016-Apr-30 14:07 309 2 gusting 7 26.7
2016-Apr-30 14:02 355 3 gusting 9 26.1
2016-Apr-30 13:57 339 3 gusting 9 26.1
2016-Apr-30 13:52 306 4 gusting 7 26.7
2016-Apr-30 13:47 355 5 gusting 7 26.1
2016-Apr-30 13:42 273 4 gusting 6 26.1
2016-Apr-30 13:37 319 2 gusting 6 26.7
2016-Apr-30 13:32 296 0 gusting 5 26.7
2016-Apr-30 13:27 319 0 gusting 5 26.1
2016-Apr-30 13:22 179 0 gusting 6 26.1
2016-Apr-30 13:17 234 1 gusting 6 25.6
2016-Apr-30 13:12 075 3 gusting 8 25.6
2016-Apr-30 13:07 028 4 gusting 8 25.6
2016-Apr-30 13:02 005 3 gusting 8 25.6
2016-Apr-30 12:57 051 3 gusting 8 25.6
2016-Apr-30 12:52 043 2 gusting 6 25.6
2016-Apr-30 12:47 059 1 gusting 6 25.0
2016-Apr-30 12:42 163 2 gusting 6 25.0
2016-Apr-30 12:37 105 1 gusting 6 25.0
2016-Apr-30 12:32 081 1 gusting 6 25.0
2016-Apr-30 12:27 063 2 gusting 6 25.0
2016-Apr-30 12:22 110 3 gusting 6 24.4
2016-Apr-30 12:17 054 1 gusting 6 24.4
2016-Apr-30 12:12 107 2 gusting 8 24.4
2016-Apr-30 12:07 099 3 gusting 8 23.9
2016-Apr-30 12:02 078 4 gusting 8 23.9
2016-Apr-30 11:57 064 2 gusting 8 24.4
2016-Apr-30 11:52 111 0 gusting 7 24.4
2016-Apr-30 11:47 213 2 gusting 7 23.9
2016-Apr-30 11:42 102 3 gusting 6 23.9
2016-Apr-30 11:37 113 2 gusting 6 23.9
2016-Apr-30 11:32 086 2 gusting 6 23.9
2016-Apr-30 11:27 082 3 gusting 6 23.3
2016-Apr-30 11:22 137 2 gusting 6 23.3
2016-Apr-30 11:17 096 1 gusting 6 23.3
2016-Apr-30 11:12 042 3 gusting 6 23.3
2016-Apr-30 11:07 109 3 gusting 6 23.3
2016-Apr-30 11:02 086 2 gusting 6 23.3
2016-Apr-30 10:57 107 1 gusting 6 23.3
2016-Apr-30 10:52 121 1 gusting 4 23.3
2016-Apr-30 10:47 082 1 gusting 4 23.3
2016-Apr-30 10:42 035 1 gusting 5 23.3
2016-Apr-30 10:37 044 1 gusting 5 22.8
2016-Apr-30 10:32 080 1 gusting 6 22.2
2016-Apr-30 10:27 156 1 gusting 6 22.2
2016-Apr-30 10:22 155 2 gusting 6 22.2
2016-Apr-30 10:17 146 2 gusting 6 22.2
2016-Apr-30 10:12 105 0 gusting 6 22.2
2016-Apr-30 10:07 100 1 gusting 6 22.2
2016-Apr-30 10:02 123 2 gusting 6 21.7
2016-Apr-30 09:57 138 2 gusting 6 21.7
2016-Apr-30 09:52 094 2 gusting 6 21.7
2016-Apr-30 09:47 092 3 gusting 6 21.7
2016-Apr-30 09:42 138 2 gusting 6 21.7
2016-Apr-30 09:37 150 1 gusting 6 21.7
2016-Apr-30 09:32 194 0 gusting 6 21.7
2016-Apr-30 09:27 155 0 gusting 6 21.7
2016-Apr-30 09:22 155 1 gusting 6 21.1
2016-Apr-30 09:17 150 0 gusting 6 21.1
2016-Apr-30 09:12 064 0 gusting 5 20.6
2016-Apr-30 09:07 064 1 gusting 5 20.6
2016-Apr-30 09:02 064 1 gusting 5 20.6
2016-Apr-30 08:57 110 0 gusting 5 20.6
2016-Apr-30 08:52 144 0 gusting 4 20.6
2016-Apr-30 08:47 090 1 gusting 4 20.0
2016-Apr-30 08:42 049 0 gusting 3 20.6
2016-Apr-30 08:37 077 0 gusting 3 20.0
2016-Apr-30 08:32 063 0 gusting 4 20.0
2016-Apr-30 08:27 069 0 gusting 4 20.0
2016-Apr-30 08:22 047 0 gusting 2 20.0
2016-Apr-30 08:17 048 0 gusting 2 19.4
2016-Apr-30 08:12 317 0 gusting 2 19.4
2016-Apr-30 08:07 317 19.4
2016-Apr-30 08:02 317 19.4
2016-Apr-30 07:57 317 18.9
2016-Apr-30 07:52 317 18.9
2016-Apr-30 07:47 317 18.3
2016-Apr-30 07:42 317 0 gusting 3 18.3
2016-Apr-30 07:37 317 0 gusting 3 17.8
2016-Apr-30 07:32 317 0 gusting 1 17.8
2016-Apr-30 07:27 317 17.2
2016-Apr-30 07:22 317 16.7
2016-Apr-30 07:17 317 16.7
2016-Apr-30 07:12 317 16.1
2016-Apr-30 07:07 317 16.1
2016-Apr-30 07:02 317 16.1
2016-Apr-30 06:57 317 0 gusting 2 15.6
2016-Apr-30 06:52 317 0 gusting 2 15.6
2016-Apr-30 06:47 317 15.6
2016-Apr-30 06:42 317 15.6
2016-Apr-30 06:37 317 0 gusting 2 15.6
2016-Apr-30 06:32 317 15.6
2016-Apr-30 06:27 317 15.6
2016-Apr-30 06:22 317 15.0
2016-Apr-30 06:17 317 15.0
2016-Apr-30 06:12 317 0 gusting 3 15.0
2016-Apr-30 06:07 317 1 gusting 3 15.0
2016-Apr-30 06:02 317 1 gusting 2 15.0
2016-Apr-30 05:57 317 1 gusting 2 15.0
2016-Apr-30 05:52 317 0 gusting 3 15.0
2016-Apr-30 05:47 317 0 gusting 3 15.0
2016-Apr-30 05:42 317 0 gusting 2 15.0
2016-Apr-30 05:37 317 0 gusting 2 15.6
2016-Apr-30 05:32 317 15.6
2016-Apr-30 05:27 317 15.6
2016-Apr-30 05:22 317 0 gusting 0 16.1
2016-Apr-30 05:17 317 16.1
2016-Apr-30 05:12 317 16.1
2016-Apr-30 05:07 317 16.1
2016-Apr-30 05:02 317 16.1
2016-Apr-30 04:57 317 16.1
2016-Apr-30 04:52 317 16.1
2016-Apr-30 04:47 317 16.1
2016-Apr-30 04:42 317 16.1
2016-Apr-30 04:37 317 16.1
2016-Apr-30 04:32 317 16.7
2016-Apr-30 04:27 317 16.7
2016-Apr-30 04:22 317 16.7
2016-Apr-30 04:17 317 16.7
2016-Apr-30 04:12 317 16.7
2016-Apr-30 04:07 317 16.7
2016-Apr-30 04:02 317 16.7
2016-Apr-30 03:57 317 16.7
2016-Apr-30 03:52 317 16.7
2016-Apr-30 03:47 317 0 gusting 2 17.2
2016-Apr-30 03:42 317 17.2
2016-Apr-30 03:37 317 17.2
2016-Apr-30 03:32 317 17.2
2016-Apr-30 03:27 317 17.2
2016-Apr-30 03:22 317 17.2
2016-Apr-30 03:17 317 17.2
2016-Apr-30 03:12 317 17.2
2016-Apr-30 03:07 317 17.2
2016-Apr-30 03:02 317 17.2
2016-Apr-30 02:57 317 17.2
2016-Apr-30 02:52 317 17.2
2016-Apr-30 02:47 317 17.2
2016-Apr-30 02:42 317 0 gusting 2 17.2
2016-Apr-30 02:37 317 0 gusting 2 17.2
2016-Apr-30 02:32 317 0 gusting 2 17.2
2016-Apr-30 02:27 317 0 gusting 2 17.2
2016-Apr-30 02:22 317 0 gusting 3 17.2
2016-Apr-30 02:17 317 0 gusting 3 17.2
2016-Apr-30 02:12 317 0 gusting 1 17.2
2016-Apr-30 02:07 317 0 gusting 1 17.2
2016-Apr-30 02:02 317 17.2
2016-Apr-30 01:57 317 17.2
2016-Apr-30 01:52 317 0 gusting 3 17.2
2016-Apr-30 01:47 317 1 gusting 3 17.2
2016-Apr-30 01:42 317 1 gusting 3 17.2
2016-Apr-30 01:37 317 1 gusting 3 17.2
2016-Apr-30 01:32 317 1 gusting 3 17.2
2016-Apr-30 01:27 317 1 gusting 3 17.2
2016-Apr-30 01:22 317 0 17.2
2016-Apr-30 01:17 317 17.8
2016-Apr-30 01:12 317 17.8
2016-Apr-30 01:07 317 17.8
2016-Apr-30 01:02 317 0 gusting 3 17.8
2016-Apr-30 00:57 317 1 gusting 3 17.8
2016-Apr-30 00:52 317 0 gusting 4 17.8
2016-Apr-30 00:47 317 0 gusting 4 17.8
2016-Apr-30 00:42 317 1 gusting 4 17.8
2016-Apr-30 00:37 317 1 gusting 4 17.8
2016-Apr-30 00:32 317 1 gusting 5 17.8
2016-Apr-30 00:27 317 1 gusting 5 18.3
2016-Apr-30 00:22 317 1 gusting 5 18.3
2016-Apr-30 00:17 317 2 gusting 5 18.3
2016-Apr-30 00:12 323 2 gusting 6 18.3
2016-Apr-30 00:07 300 2 gusting 6 18.3
2016-Apr-30 00:02 300 3 gusting 6 18.3
2016-Apr-29 23:57 279 3 gusting 6 18.3
2016-Apr-29 23:52 275 1 gusting 3 18.3
2016-Apr-29 23:47 279 0 gusting 3 18.3
2016-Apr-29 23:42 279 0 gusting 2 18.3
2016-Apr-29 23:37 279 0 gusting 2 18.3
2016-Apr-29 23:32 279 0 gusting 5 18.3
2016-Apr-29 23:27 279 0 gusting 5 18.3
2016-Apr-29 23:22 279 2 gusting 5 18.3
2016-Apr-29 23:17 279 2 gusting 5 18.3
2016-Apr-29 23:12 288 2 gusting 6 18.3
2016-Apr-29 23:07 316 2 gusting 6 18.3
2016-Apr-29 23:02 282 2 gusting 6 18.3
2016-Apr-29 22:57 296 4 gusting 6 18.3
2016-Apr-29 22:52 277 5 gusting 6 18.3
2016-Apr-29 22:47 267 4 gusting 6 18.3
2016-Apr-29 22:42 284 4 gusting 7 18.3
2016-Apr-29 22:37 267 5 gusting 7 18.9
2016-Apr-29 22:32 294 6 gusting 7 18.9
2016-Apr-29 22:27 277 6 gusting 7 18.9
2016-Apr-29 22:22 281 6 gusting 7 18.9
2016-Apr-29 22:17 267 6 gusting 7 18.9
2016-Apr-29 22:12 285 5 gusting 7 18.9
2016-Apr-29 22:07 279 5 gusting 7 18.9
2016-Apr-29 22:02 279 5 gusting 7 18.9
2016-Apr-29 21:57 279 4 gusting 7 18.9
2016-Apr-29 21:52 280 4 gusting 6 18.9
2016-Apr-29 21:47 289 3 gusting 6 18.9
2016-Apr-29 21:42 312 2 gusting 6 18.9
2016-Apr-29 21:37 317 2 gusting 6 19.4
2016-Apr-29 21:32 278 1 gusting 6 19.4
2016-Apr-29 21:27 292 1 gusting 6 19.4
2016-Apr-29 21:22 292 3 gusting 6 19.4
2016-Apr-29 21:17 292 4 gusting 6 19.4
2016-Apr-29 21:12 287 3 gusting 7 19.4
2016-Apr-29 21:07 287 2 gusting 7 19.4
2016-Apr-29 21:02 300 3 gusting 7 19.4
2016-Apr-29 20:57 297 4 gusting 7 19.4
2016-Apr-29 20:52 288 5 gusting 8 20.0
2016-Apr-29 20:47 305 6 gusting 8 20.0
2016-Apr-29 20:42 276 6 gusting 9 20.0
2016-Apr-29 20:37 276 6 gusting 9 20.0
2016-Apr-29 20:32 269 5 gusting 8 20.0
2016-Apr-29 20:27 286 5 gusting 8 20.0
2016-Apr-29 20:22 284 5 gusting 7 20.0
2016-Apr-29 20:17 274 4 gusting 7 20.0
2016-Apr-29 20:12 265 4 gusting 8 20.0
2016-Apr-29 20:07 241 5 gusting 8 20.0
2016-Apr-29 20:02 269 6 gusting 8 20.0
2016-Apr-29 19:57 271 6 gusting 8 20.6
2016-Apr-29 19:52 253 6 gusting 9 20.6
2016-Apr-29 19:47 259 6 gusting 9 20.6
2016-Apr-29 19:42 271 6 gusting 8 20.6
2016-Apr-29 19:37 267 6 gusting 8 20.6
2016-Apr-29 19:32 282 6 gusting 10 20.6
2016-Apr-29 19:27 254 6 gusting 10 20.6
2016-Apr-29 19:22 278 6 gusting 10 21.1
2016-Apr-29 19:17 281 6 gusting 10 21.1
2016-Apr-29 19:12 260 6 gusting 12 21.1
2016-Apr-29 19:07 276 6 gusting 12 21.1
2016-Apr-29 19:02 271 6 gusting 12 21.7
2016-Apr-29 18:57 254 5 gusting 12 21.7
2016-Apr-29 18:52 248 3 gusting 5 22.2
2016-Apr-29 18:47 245 2 gusting 5 22.2
2016-Apr-29 18:42 261 2 gusting 5 22.2
2016-Apr-29 18:37 261 2 gusting 5 22.8
2016-Apr-29 18:32 257 1 gusting 4 22.8
2016-Apr-29 18:27 257 1 gusting 4 22.8
2016-Apr-29 18:22 255 1 gusting 3 22.8
2016-Apr-29 18:17 258 0 gusting 4 22.8
2016-Apr-29 18:12 281 0 gusting 4 22.8
2016-Apr-29 18:07 283 1 gusting 4 23.3
2016-Apr-29 18:02 281 0 gusting 1 23.3
2016-Apr-29 17:57 281 23.3
2016-Apr-29 17:52 281 23.3
2016-Apr-29 17:47 281 22.8
2016-Apr-29 17:42 281 22.8
2016-Apr-29 17:37 281 1 gusting 4 22.8
2016-Apr-29 17:32 281 2 gusting 5 22.8
2016-Apr-29 17:27 282 3 gusting 5 22.8
2016-Apr-29 17:22 273 3 gusting 5 22.8
2016-Apr-29 17:17 300 2 gusting 5 22.8
2016-Apr-29 17:12 271 1 gusting 3 22.8
2016-Apr-29 17:07 280 1 gusting 3 22.8
2016-Apr-29 17:02 281 1 gusting 3 22.8
2016-Apr-29 16:57 273 1 gusting 3 23.3
2016-Apr-29 16:52 327 0 gusting 5 22.8
2016-Apr-29 16:47 273 0 gusting 5 22.8
2016-Apr-29 16:42 273 2 gusting 5 22.8
2016-Apr-29 16:37 299 2 gusting 5 22.8
2016-Apr-29 16:32 285 2 gusting 6 22.8
2016-Apr-29 16:27 242 3 gusting 6 22.8
2016-Apr-29 16:22 262 3 gusting 6 22.8
2016-Apr-29 16:17 301 2 gusting 6 22.8
2016-Apr-29 16:12 317 3 gusting 6 22.8
2016-Apr-29 16:07 300 3 gusting 6 22.8
2016-Apr-29 16:02 331 2 gusting 4 22.8
2016-Apr-29 15:57 304 2 gusting 4 22.8
2016-Apr-29 15:52 329 1 gusting 4 22.8
2016-Apr-29 15:47 311 1 gusting 4 22.8
2016-Apr-29 15:42 288 2 gusting 4 22.8
2016-Apr-29 15:37 308 1 gusting 4 22.8
2016-Apr-29 15:32 310 2 gusting 5 22.8
2016-Apr-29 15:27 310 2 gusting 5 22.8
2016-Apr-29 15:22 306 2 gusting 5 22.8
2016-Apr-29 15:17 334 2 gusting 5 22.8
2016-Apr-29 15:12 323 2 gusting 5 22.8
2016-Apr-29 15:07 341 2 gusting 5 23.3
2016-Apr-29 15:02 313 1 gusting 5 23.3
2016-Apr-29 14:57 335 1 gusting 5 23.3
2016-Apr-29 14:52 321 1 gusting 4 23.3
2016-Apr-29 14:47 311 0 gusting 4 23.3
2016-Apr-29 14:42 310 0 gusting 2 23.3
2016-Apr-29 14:37 299 0 gusting 2 23.3
2016-Apr-29 14:32 329 23.3
2016-Apr-29 14:27 333 0 gusting 4 23.3
2016-Apr-29 14:22 319 0 gusting 8 23.3
2016-Apr-29 14:17 162 0 gusting 8 23.3
2016-Apr-29 14:12 162 2 gusting 9 23.3
2016-Apr-29 14:07 141 4 gusting 9 23.3
2016-Apr-29 14:02 145 3 gusting 6 23.3
2016-Apr-29 13:57 142 1 gusting 6 23.9
2016-Apr-29 13:52 224 23.3
2016-Apr-29 13:47 236 0 gusting 4 23.3
2016-Apr-29 13:42 078 0 gusting 6 22.8
2016-Apr-29 13:37 140 1 gusting 6 22.8
2016-Apr-29 13:32 167 1 gusting 6 22.8
2016-Apr-29 13:27 165 1 gusting 6 22.8
2016-Apr-29 13:22 103 1 gusting 6 22.8
2016-Apr-29 13:17 096 0 gusting 6 22.8
2016-Apr-29 13:12 290 0 gusting 6 22.8
2016-Apr-29 13:07 117 1 gusting 6 22.2
2016-Apr-29 13:02 115 2 gusting 6 22.2
2016-Apr-29 12:57 111 1 gusting 6 22.2
2016-Apr-29 12:52 104 1 gusting 6 22.2
2016-Apr-29 12:47 104 1 gusting 6 22.2
2016-Apr-29 12:42 158 1 gusting 5 21.7
2016-Apr-29 12:37 071 1 gusting 5 21.7
2016-Apr-29 12:32 063 1 gusting 5 21.7
2016-Apr-29 12:27 113 2 gusting 5 21.7
2016-Apr-29 12:22 134 1 gusting 5 21.7
2016-Apr-29 12:17 113 1 gusting 5 21.7
2016-Apr-29 12:12 138 0 gusting 6 21.7
2016-Apr-29 12:07 198 0 gusting 6 21.7
2016-Apr-29 12:02 221 2 gusting 10 21.7
2016-Apr-29 11:57 221 3 gusting 10 21.7
2016-Apr-29 11:52 167 3 gusting 10 21.1
2016-Apr-29 11:47 148 3 gusting 10 21.1
2016-Apr-29 11:42 130 3 gusting 7 21.1
2016-Apr-29 11:37 121 3 gusting 7 21.7
2016-Apr-29 11:32 134 0 gusting 6 21.7
2016-Apr-29 11:27 133 0 gusting 6 22.2
2016-Apr-29 11:22 082 1 gusting 6 22.2
2016-Apr-29 11:17 150 1 gusting 6 21.7
2016-Apr-29 11:12 150 1 gusting 5 21.7
2016-Apr-29 11:07 161 0 gusting 5 21.7
2016-Apr-29 11:02 114 0 gusting 4 21.7
2016-Apr-29 10:57 017 0 gusting 4 21.1
2016-Apr-29 10:52 257 0 gusting 5 21.1
2016-Apr-29 10:47 141 0 gusting 5 21.1
2016-Apr-29 10:42 141 0 gusting 4 20.6
2016-Apr-29 10:37 153 0 gusting 4 20.6
2016-Apr-29 10:32 240 0 gusting 4 20.6
2016-Apr-29 10:27 121 0 gusting 4 20.0
2016-Apr-29 10:22 113 0 gusting 5 20.0
2016-Apr-29 10:17 142 0 gusting 5 19.4
2016-Apr-29 10:12 132 1 gusting 4 19.4
2016-Apr-29 10:07 059 2 gusting 4 19.4
2016-Apr-29 10:02 053 1 gusting 4 19.4
2016-Apr-29 09:57 045 0 gusting 4 19.4
2016-Apr-29 09:52 075 18.9
2016-Apr-29 09:47 075 0 gusting 4 18.3
2016-Apr-29 09:42 075 0 gusting 5 18.3
2016-Apr-29 09:37 092 0 gusting 5 17.8
2016-Apr-29 09:32 092 1 gusting 3 17.8
2016-Apr-29 09:27 063 1 gusting 3 17.8
2016-Apr-29 09:22 063 0 gusting 5 17.8
2016-Apr-29 09:17 067 0 gusting 5 17.2
2016-Apr-29 09:12 067 1 gusting 4 17.2
2016-Apr-29 09:07 054 1 gusting 4 17.2
2016-Apr-29 09:02 065 1 gusting 4 17.2
2016-Apr-29 08:57 065 1 gusting 4 16.7
2016-Apr-29 08:52 072 1 gusting 4 16.7
2016-Apr-29 08:47 088 1 gusting 4 16.7
2016-Apr-29 08:42 091 0 gusting 4 16.7
2016-Apr-29 08:37 091 1 gusting 4 16.7
2016-Apr-29 08:32 091 1 gusting 3 16.7
2016-Apr-29 08:27 091 16.7
2016-Apr-29 08:22 091 0 gusting 3 16.7
2016-Apr-29 08:17 091 0 gusting 3 16.7
2016-Apr-29 08:12 091 16.7
2016-Apr-29 08:07 091 0 gusting 3 16.1
2016-Apr-29 08:02 091 0 gusting 3 16.1
2016-Apr-29 07:57 092 0 gusting 3 16.1
2016-Apr-29 07:52 092 15.6
2016-Apr-29 07:47 093 0 gusting 4 15.6
2016-Apr-29 07:42 093 1 gusting 3 15.6
2016-Apr-29 07:37 093 15.6
2016-Apr-29 07:32 054 15.0
2016-Apr-29 07:27 054 15.0
2016-Apr-29 07:22 054 15.0
2016-Apr-29 07:17 054 15.0
2016-Apr-29 07:12 054 1 gusting 3 15.0
2016-Apr-29 07:07 055 1 gusting 3 15.0
2016-Apr-29 07:02 167 1 gusting 3 14.4
2016-Apr-29 06:57 175 1 gusting 3 14.4
2016-Apr-29 06:52 180 0 gusting 3 14.4
2016-Apr-29 06:47 180 0 gusting 3 14.4
2016-Apr-29 06:42 180 0 gusting 3 14.4
2016-Apr-29 06:37 180 0 gusting 3 14.4
2016-Apr-29 06:32 180 1 gusting 3 13.9
2016-Apr-29 06:27 186 0 gusting 3 13.9
2016-Apr-29 06:22 300 13.9
2016-Apr-29 06:17 300 13.9
2016-Apr-29 06:12 300 13.9
2016-Apr-29 06:07 300 13.9
2016-Apr-29 06:02 300 13.3
2016-Apr-29 05:57 300 13.3
2016-Apr-29 05:52 300 13.3
2016-Apr-29 05:47 300 13.3
2016-Apr-29 05:42 300 13.3
2016-Apr-29 05:37 300 13.3
2016-Apr-29 05:32 300 13.3
2016-Apr-29 05:27 300 13.3
2016-Apr-29 05:22 300 13.3
2016-Apr-29 05:17 300 13.3
2016-Apr-29 05:12 300 0 gusting 3 12.8
2016-Apr-29 05:07 300 1 gusting 3 12.8
2016-Apr-29 05:02 300 1 gusting 4 12.8
2016-Apr-29 04:57 300 2 gusting 4 12.8
2016-Apr-29 04:52 300 2 gusting 4 12.8
2016-Apr-29 04:47 205 2 gusting 4 12.8
2016-Apr-29 04:42 205 2 gusting 4 12.8
2016-Apr-29 04:37 205 2 gusting 4 12.8
2016-Apr-29 04:32 205 1 gusting 3 12.8
2016-Apr-29 04:27 205 1 gusting 3 13.3
2016-Apr-29 04:22 205 0 gusting 2 13.3
2016-Apr-29 04:17 205 0 gusting 2 13.3
2016-Apr-29 04:12 205 0 gusting 2 13.3
2016-Apr-29 04:07 205 0 gusting 2 13.3
2016-Apr-29 04:02 205 0 gusting 2 13.3